Stone Corral
DateTemperatureDew Point
05/05 - 10:30 PM57.7°47.1°
05/05 - 10:15 PM56.9°47.2°
05/05 - 10:00 PM54.1°47.4°
05/05 - 09:45 PM52.9°47.3°
05/05 - 09:30 PM53.3°47.7°
05/05 - 09:15 PM54.2°48.3°
05/05 - 09:00 PM55.1°47.8°
05/05 - 08:45 PM55.5°47.5°
05/05 - 08:30 PM56.0°47.9°
05/05 - 08:15 PM57.0°48.2°
05/05 - 08:00 PM58.3°48.6°
05/05 - 07:45 PM60.2°49.1°
05/05 - 07:30 PM62.5°49.4°
05/05 - 07:15 PM63.9°48.7°
05/05 - 07:00 PM65.0°48.1°
05/05 - 06:45 PM65.7°48.2°
05/05 - 06:30 PM65.9°49.2°
05/05 - 06:15 PM66.4°48.2°
05/05 - 06:00 PM66.0°48.3°
05/05 - 05:45 PM65.7°48.4°
05/05 - 05:30 PM66.5°48.7°
05/05 - 05:15 PM68.3°49.5°
05/05 - 05:00 PM67.6°50.2°
05/05 - 04:45 PM68.0°49.9°
05/05 - 04:30 PM67.2°49.0°
05/05 - 04:15 PM66.4°47.7°
05/05 - 04:00 PM66.8°48.3°
05/05 - 03:45 PM66.9°48.3°
05/05 - 03:30 PM66.8°48.4°
05/05 - 03:15 PM66.7°48.2°
05/05 - 03:00 PM67.0°48.6°
05/05 - 02:45 PM67.1°48.9°
05/05 - 02:30 PM68.1°49.3°
05/05 - 02:15 PM69.0°50.1°
05/05 - 02:00 PM70.0°51.2°
05/05 - 01:45 PM70.2°51.5°
05/05 - 01:30 PM69.2°51.0°
05/05 - 01:15 PM68.1°51.1°
05/05 - 01:00 PM69.1°51.8°
05/05 - 12:45 PM70.3°52.3°
05/05 - 12:30 PM71.0°53.2°
05/05 - 12:15 PM70.1°53.7°
05/05 - 12:00 PM69.7°54.5°
05/05 - 11:45 AM65.7°53.7°
05/05 - 11:30 AM65.7°54.5°
05/05 - 11:15 AM64.4°54.3°
05/05 - 11:00 AM61.6°53.5°
05/05 - 10:45 AM62.1°53.5°
05/05 - 10:30 AM61.6°53.3°
05/05 - 10:15 AM61.7°53.8°
05/05 - 10:00 AM59.9°54.1°
05/05 - 09:45 AM58.3°53.6°
05/05 - 09:30 AM57.9°53.7°
05/05 - 09:15 AM57.9°54.4°
05/05 - 09:00 AM57.6°54.4°
05/05 - 08:45 AM57.0°53.9°
05/05 - 08:30 AM56.6°54.0°
05/05 - 08:15 AM55.8°53.8°
05/05 - 08:00 AM55.3°53.5°
05/05 - 07:45 AM55.3°53.4°
05/05 - 07:30 AM55.2°53.1°
05/05 - 07:15 AM55.0°52.9°
05/05 - 07:00 AM54.7°52.5°
05/05 - 06:45 AM54.6°52.1°
05/05 - 06:30 AM54.4°51.6°
05/05 - 06:15 AM54.4°51.6°
05/05 - 06:00 AM54.4°51.5°
05/05 - 05:45 AM54.2°51.4°
05/05 - 05:30 AM54.2°51.4°
05/05 - 05:15 AM54.3°51.4°
05/05 - 05:00 AM54.4°51.4°
05/05 - 04:45 AM54.5°51.1°
05/05 - 04:30 AM54.7°51.1°
05/05 - 04:15 AM54.9°51.1°
05/05 - 04:00 AM55.2°51.0°
05/05 - 03:45 AM55.4°50.8°
05/05 - 03:30 AM55.7°50.5°
05/05 - 03:15 AM55.7°50.3°
05/05 - 03:00 AM55.6°50.3°
05/05 - 02:45 AM55.2°50.3°
05/05 - 02:30 AM55.1°50.1°
05/05 - 02:15 AM55.2°49.9°
05/05 - 02:00 AM55.0°49.9°
05/05 - 01:45 AM54.9°50.3°
05/05 - 01:30 AM55.3°51.0°
05/05 - 01:15 AM55.7°51.1°
05/05 - 01:00 AM55.9°50.9°
05/05 - 12:45 AM55.6°50.9°
05/05 - 12:30 AM55.7°50.7°
05/05 - 12:15 AM55.9°50.8°
05/05 - 12:00 AM56.2°50.9°
05/04 - 11:45 PM56.0°51.1°
05/04 - 11:30 PM55.7°51.0°
05/04 - 11:15 PM55.8°51.3°
05/04 - 11:00 PM56.1°51.2°
05/04 - 10:45 PM56.7°51.1°
05/04 - 10:30 PM57.1°50.3°
05/04 - 10:15 PM56.9°49.8°
05/04 - 10:00 PM57.0°50.2°
05/04 - 09:45 PM57.6°49.8°
05/04 - 09:30 PM57.9°49.7°
05/04 - 09:15 PM58.3°50.1°
05/04 - 09:00 PM58.2°49.1°
05/04 - 08:45 PM57.9°50.1°
05/04 - 08:30 PM57.4°50.6°
05/04 - 08:15 PM57.9°50.3°
05/04 - 08:00 PM58.3°49.1°
05/04 - 07:45 PM58.8°49.2°
05/04 - 07:30 PM59.4°50.0°
05/04 - 07:15 PM59.8°50.2°
05/04 - 07:00 PM60.4°49.7°
05/04 - 06:45 PM61.4°50.3°
05/04 - 06:30 PM62.3°50.7°
05/04 - 06:15 PM62.5°50.4°
05/04 - 06:00 PM62.2°49.7°
05/04 - 05:45 PM61.9°48.8°
05/04 - 05:30 PM61.9°47.6°
05/04 - 05:15 PM61.6°46.9°
05/04 - 05:00 PM61.1°46.5°
05/04 - 04:45 PM61.4°46.6°
05/04 - 04:30 PM61.7°46.7°
05/04 - 04:15 PM61.7°47.7°
05/04 - 04:00 PM61.5°48.1°
05/04 - 03:45 PM61.8°48.5°
05/04 - 03:30 PM61.7°49.0°
05/04 - 03:15 PM61.2°49.4°
05/04 - 03:00 PM60.4°48.5°
05/04 - 02:45 PM60.0°48.6°
05/04 - 02:30 PM59.7°47.9°
05/04 - 02:15 PM59.8°48.4°
05/04 - 02:00 PM59.9°48.2°
05/04 - 01:45 PM60.3°48.6°
05/04 - 01:30 PM59.9°48.9°
05/04 - 01:15 PM59.3°48.7°
05/04 - 01:00 PM59.0°48.7°
05/04 - 12:45 PM58.9°48.4°
05/04 - 12:30 PM58.6°47.2°
05/04 - 12:15 PM59.8°48.2°
05/04 - 12:00 PM59.5°48.1°
05/04 - 11:45 AM58.9°48.0°
05/04 - 11:30 AM58.9°47.8°
05/04 - 11:15 AM59.1°47.5°
05/04 - 11:00 AM58.8°48.6°
05/04 - 10:45 AM58.3°48.8°
05/04 - 10:30 AM58.1°48.4°
05/04 - 10:15 AM58.0°48.6°
05/04 - 10:00 AM57.8°48.3°
05/04 - 09:45 AM57.5°47.8°
05/04 - 09:30 AM57.1°47.9°
05/04 - 09:15 AM56.7°48.3°
05/04 - 09:00 AM56.4°48.4°
05/04 - 08:45 AM56.2°48.0°
05/04 - 08:30 AM56.0°47.6°
05/04 - 08:15 AM55.9°48.0°
05/04 - 08:00 AM55.7°48.0°
05/04 - 07:45 AM55.7°47.9°
05/04 - 07:30 AM55.6°47.6°
05/04 - 07:15 AM55.3°47.8°
05/04 - 07:00 AM55.1°48.1°
05/04 - 06:45 AM55.1°49.1°
05/04 - 06:30 AM55.8°49.3°
05/04 - 06:15 AM56.4°48.7°
05/04 - 06:00 AM56.4°48.3°
05/04 - 05:45 AM56.8°48.1°
05/04 - 05:30 AM56.6°48.4°
05/04 - 05:15 AM56.7°48.4°
05/04 - 05:00 AM56.9°48.2°
05/04 - 04:45 AM57.0°47.8°
05/04 - 04:30 AM57.2°47.6°
05/04 - 04:15 AM57.4°47.2°
05/04 - 04:00 AM57.8°46.5°
05/04 - 03:45 AM57.9°45.7°
05/04 - 03:30 AM58.1°45.4°
05/04 - 03:15 AM58.2°45.5°
05/04 - 03:00 AM58.6°45.7°
05/04 - 02:45 AM59.1°46.7°
05/04 - 02:30 AM59.3°47.2°
05/04 - 02:15 AM59.6°46.9°
05/04 - 02:00 AM59.8°46.7°
05/04 - 01:45 AM60.0°46.6°
05/04 - 01:30 AM60.2°46.3°
05/04 - 01:15 AM60.5°45.9°
05/04 - 01:00 AM60.8°45.8°
05/04 - 12:45 AM61.1°46.3°
05/04 - 12:30 AM61.2°45.3°
05/04 - 12:15 AM61.6°45.3°
05/04 - 12:00 AM61.7°44.7°
05/03 - 11:45 PM61.9°44.3°
05/03 - 11:30 PM62.2°44.2°
05/03 - 11:15 PM62.4°44.4°
05/03 - 11:00 PM62.3°44.3°